Temperature
6 6 5 6 6 6 6 6 6 6 6 6 6 6 6 6 6 6 6 6 6 6 6 6 6 6 6 6 6 6 6 6 5 5 5 5 5 4 4 4 4 4 4
5 5 5 5 5 5 5 6 5 5 6 6 6 6 6 6 6 6 6 6 6 6 6 6 6 6 6 6 6 5 5 5 5 5 5 4 4 4 3 3 3 3 3
5 5 5 5 5 5 5 5 5 5 5 5 5 5 5 5 5 5 5 6 5 5 6 5 5 5 5 5 5 5 5 5 4 4 4 4 3 3 3 3 3 3 2
5 5 5 5 5 5 5 5 5 5 5 5 5 5 5 5 5 5 5 5 5 5 5 5 5 5 5 5 4 4 4 4 4 3 3 3 3 3 2 2 2 2 2
5 5 5 5 5 5 5 5 5 5 4 4 4 4 4 4 4 5 5 5 5 5 5 4 4 4 4 4 4 4 4 3 3 3 3 2 2 2 2 2 2 2 2
5 5 5 4 4 5 5 5 5 4 4 4 4 4 4 4 4 4 4 4 4 4 4 4 4 4 4 3 3 3 3 3 3 2 2 2 2 2 1 1 1 1 1
4 4 4 4 4 4 4 4 4 4 4 4 4 4 4 4 4 4 4 4 4 4 4 4 3 3 3 3 3 3 3 2 2 2 2 2 2 1 1 1 0 0 0
4 4 4 4 3 3 3 4 4 4 4 4 4 3 3 3 3 3 3 3 3 3 3 3 3 3 3 3 2 2 2 2 2 1 1 1 1 1 0 -0 -0 -1 -0
3 3 3 3 3 3 3 3 3 3 3 3 3 3 3 3 3 3 3 3 3 3 3 2 2 2 2 2 2 2 2 2 1 1 1 1 0 -0 -0 -1 -1 -1 -1
3 3 3 3 2 2 2 2 2 2 2 2 2 2 2 2 2 2 2 2 2 2 2 2 2 2 2 2 1 1 1 1 1 1 0 0 -0 -1 -1 -1 -1 -2 -2
2 2 2 2 2 2 2 2 2 2 2 2 2 2 2 2 2 1 1 1 1 1 1 1 1 1 1 1 1 1 0 0 0 -0 -0 -1 -1 -1 -1 -2 -2 -2 -3
2 2 2 2 2 1 1 1 1 1 1 1 1 1 1 1 1 1 1 1 0 1 1 1 1 1 0 0 -0 -0 -0 -0 -1 -1 -1 -1 -1 -2 -2 -2 -2 -3 -3
1 1 1 1 1 1 1 1 1 1 1 1 0 0 0 0 0 0 0 0 0 -0 0 0 -0 -0 -0 -0 -1 -1 -1 -1 -1 -1 -1 -2 -2 -2 -2 -3 -3 -3 -4
1 1 1 1 1 1 0 0 0 -0 -0 -0 -0 -0 -0 -0 -0 -0 -0 -0 -1 -1 -1 -1 -1 -1 -1 -1 -1 -1 -2 -2 -2 -2 -2 -2 -3 -3 -3 -3 -4 -4 -4
0 0 0 0 -0 -0 -0 -1 -1 -1 -1 -1 -1 -1 -1 -1 -1 -1 -1 -1 -1 -1 -1 -1 -1 -1 -1 -2 -2 -2 -2 -2 -3 -3 -3 -3 -3 -3 -4 -4 -4 -4 -5
-0 -0 -0 -1 -1 -1 -1 -1 -1 -1 -1 -1 -2 -2 -2 -2 -2 -2 -2 -2 -2 -2 -2 -2 -2 -2 -2 -2 -3 -3 -3 -3 -3 -4 -4 -4 -4 -4 -4 -4 -5 -5 -5
-1 -1 -1 -1 -1 -2 -2 -2 -2 -2 -2 -2 -2 -2 -2 -2 -2 -2 -2 -2 -2 -2 -3 -3 -3 -3 -3 -3 -3 -3 -3 -4 -4 -4 -4 -4 -4 -5 -5 -5 -5 -5 -6
-2 -2 -2 -2 -2 -2 -2 -3 -3 -3 -3 -3 -2 -3 -3 -3 -3 -3 -3 -3 -3 -3 -3 -3 -3 -3 -3 -4 -4 -4 -4 -4 -4 -4 -5 -5 -5 -5 -5 -5 -6 -6 -6
-2 -2 -3 -3 -3 -3 -3 -3 -3 -3 -4 -3 -3 -3 -3 -3 -3 -3 -3 -3 -3 -3 -4 -4 -4 -4 -4 -4 -4 -4 -4 -4 -5 -5 -5 -5 -5 -6 -6 -6 -6 -6 -6
-3 -3 -3 -3 -4 -4 -4 -4 -4 -4 -4 -4 -4 -4 -4 -4 -4 -4 -4 -4 -4 -4 -4 -4 -4 -4 -4 -4 -5 -5 -5 -5 -5 -5 -5 -6 -6 -6 -6 -6 -6 -6 -7
-4 -4 -4 -4 -4 -4 -4 -4 -5 -5 -5 -5 -5 -5 -5 -5 -5 -5 -5 -5 -5 -5 -5 -5 -5 -5 -5 -5 -5 -5 -5 -5 -5 -5 -6 -6 -6 -6 -6 -7 -7 -7 -7
-4 -5 -5 -5 -5 -5 -5 -5 -5 -5 -5 -5 -5 -5 -5 -5 -5 -5 -5 -5 -5 -5 -5 -5 -5 -5 -5 -5 -5 -5 -5 -5 -6 -6 -6 -6 -6 -7 -7 -7 -7 -7 -7
-5 -5 -5 -5 -6 -6 -6 -6 -6 -6 -6 -6 -6 -6 -6 -6 -6 -6 -5 -5 -5 -5 -5 -5 -5 -5 -6 -6 -6 -6 -6 -6 -6 -6 -6 -7 -7 -7 -7 -7 -7 -7 -8
-6 -6 -6 -6 -6 -6 -6 -6 -6 -6 -6 -6 -6 -6 -6 -6 -6 -6 -6 -6 -6 -6 -6 -6 -6 -6 -6 -6 -6 -6 -6 -6 -6 -7 -7 -7 -7 -7 -7 -7 -8 -8 -8
-6 -6 -6 -6 -7 -7 -7 -7 -7 -7 -7 -7 -7 -6 -6 -6 -6 -6 -6 -6 -6 -6 -6 -6 -6 -6 -6 -6 -6 -7 -7 -7 -7 -7 -7 -7 -7 -7 -7 -8 -8 -8 -8
-7 -7 -7 -7 -7 -7 -7 -7 -7 -7 -7 -7 -7 -7 -7 -7 -7 -7 -6 -6 -6 -6 -6 -6 -6 -6 -6 -7 -7 -7 -7 -7 -7 -7 -7 -7 -7 -7 -8 -8 -8 -8 -8
Wind_Speed
3 3 2 2 2 3 3 4 4 4 4 4 4 4 4 4 4 4 4 5 5 4 3 4 3 3 3 3 2 3 3 3 3 2 1 1 2 2 3 4 5 6 6
3 2 2 2 2 3 4 4 4 4 4 4 4 4 4 4 4 5 5 5 6 5 5 4 4 3 4 3 3 3 3 3 3 3 2 1 2 3 2 2 4 5 7
3 3 3 3 3 4 4 4 4 4 3 4 4 5 5 4 5 5 5 5 6 6 6 5 5 5 4 3 4 4 3 2 2 3 3 2 2 1 1 2 3 4 6
2 3 3 3 4 4 4 4 5 4 4 4 4 4 4 5 5 5 5 5 5 5 5 5 5 6 6 6 5 5 4 3 3 3 3 2 2 2 1 2 3 2 3
2 2 2 2 2 2 3 4 4 5 5 4 4 4 4 4 5 5 5 5 5 5 4 5 5 7 8 7 5 5 5 4 3 3 3 2 3 2 3 2 3 3 3
2 2 1 1 1 1 2 3 3 3 4 4 4 5 5 5 7 8 6 5 6 6 5 5 5 6 7 9 9 9 8 7 6 5 4 5 5 4 3 3 2 2 3
2 1 1 1 1 2 1 1 2 3 3 4 4 5 5 6 8 9 9 6 6 6 6 5 4 5 6 4 6 8 8 10 10 7 6 7 6 5 4 4 4 4 5
1 1 1 1 1 2 1 1 1 1 2 2 3 4 4 5 7 8 8 5 5 5 6 6 6 5 5 6 5 5 5 6 7 6 7 7 6 6 6 5 5 3 3
1 1 1 1 1 1 2 2 1 1 2 2 2 3 3 4 5 7 6 3 4 5 5 5 6 6 8 8 6 5 5 5 7 8 9 8 8 8 6 2 2 2 3
1 1 1 1 1 2 2 2 1 1 2 2 2 2 3 3 5 6 6 3 4 3 3 4 6 7 8 8 6 6 6 6 4 3 4 5 5 6 7 5 5 3 3
1 1 1 1 1 1 1 1 1 1 1 1 1 2 2 3 4 5 6 3 4 3 3 3 4 8 8 9 7 6 8 5 4 4 3 3 2 3 3 4 5 4 4
1 1 1 1 1 1 1 1 1 1 1 1 1 2 2 2 3 4 5 6 5 4 4 4 4 7 8 8 7 7 7 4 2 3 3 3 3 3 3 3 5 5 6
2 1 1 2 2 1 1 1 1 1 1 1 1 2 3 2 3 5 6 6 6 4 4 5 6 6 6 5 6 7 5 3 3 3 4 4 3 3 2 1 2 3 4
1 1 1 2 2 2 2 1 1 1 1 2 2 2 3 2 2 2 3 3 4 4 3 4 5 5 3 3 3 4 3 3 4 4 4 3 2 2 2 2 2 2 2
1 1 2 2 2 2 2 2 2 2 2 3 3 2 3 4 5 5 4 3 3 4 2 1 1 1 2 2 2 2 2 2 3 3 3 2 2 2 2 2 2 2 3
2 2 2 2 2 2 2 3 4 3 5 5 5 4 4 6 7 7 6 7 6 5 3 2 3 3 4 4 3 3 3 4 4 3 3 3 3 3 3 2 2 3 4
1 1 1 1 2 2 2 2 4 5 5 5 6 6 6 6 7 6 6 6 5 4 3 3 3 3 4 4 4 4 4 4 4 4 4 4 4 3 3 3 3 3 4
1 1 1 1 1 2 2 2 2 3 4 4 5 6 7 7 6 5 5 3 2 2 2 3 4 3 3 4 4 4 4 3 4 4 4 4 4 4 4 4 4 4 4
1 1 1 1 2 2 2 2 2 3 3 4 4 5 7 6 6 5 4 2 2 3 3 3 3 4 4 4 4 4 4 4 4 4 4 4 4 4 4 4 4 6 5
2 3 3 2 2 2 2 3 3 3 4 4 4 4 4 3 3 3 2 2 2 3 3 4 4 4 4 4 4 4 4 4 5 4 4 4 4 4 5 5 5 5 4
2 3 4 3 2 3 3 3 4 4 4 4 5 5 6 4 3 3 3 3 3 4 4 4 3 3 4 3 4 4 5 5 4 4 4 4 4 4 4 4 4 4 4
2 2 2 3 3 3 4 4 4 4 5 5 5 5 7 4 3 3 3 3 3 3 3 3 3 3 3 4 4 4 5 5 5 5 4 4 4 4 4 4 4 4 4
2 2 3 3 3 5 5 4 4 4 4 4 5 4 4 4 4 4 4 4 3 3 3 2 3 3 3 4 5 4 5 5 5 5 5 5 4 4 4 5 5 5 4
2 3 3 3 4 4 4 4 4 5 5 5 5 4 4 4 5 5 4 4 3 3 3 3 3 4 4 4 4 5 6 6 6 6 6 5 5 5 4 4 5 5 5
2 3 3 3 3 4 4 5 5 5 5 5 5 5 5 5 5 5 4 3 3 3 3 4 4 4 5 5 5 5 6 6 6 6 6 5 5 5 5 4 4 4 4
3 3 3 3 3 4 4 5 5 5 5 5 5 5 5 5 5 4 4 3 3 3 3 3 4 5 5 5 6 6 6 6 7 7 5 4 4 4 4 4 4 4 4
Wind_Direction
183 183 184 191 186 184 192 194 195 195 183 173 174 178 184 189 188 184 188 181 182 189 185 180 192 178 168 167 157 154 153 154 197 240 246 222 199 217 255 253 257 265 271
187 179 191 197 195 197 202 198 191 191 186 178 177 182 191 195 193 190 193 192 192 196 197 188 197 185 184 180 172 173 176 171 179 217 243 235 232 222 237 255 269 269 271
187 186 198 205 207 210 207 196 187 189 186 182 183 191 197 197 195 198 197 198 201 201 197 195 200 189 197 194 188 188 186 181 172 192 227 234 246 240 253 273 278 280 280
180 188 203 214 217 218 209 195 190 188 189 194 196 202 202 203 203 202 197 199 204 205 203 203 202 201 203 195 195 195 185 182 177 188 218 228 239 248 225 254 281 277 285
172 198 219 239 228 205 203 199 193 189 195 194 196 205 204 205 210 206 202 199 199 203 208 211 213 212 208 201 200 195 186 189 189 200 221 225 231 223 230 230 257 290 286
184 227 257 275 278 252 221 198 188 192 194 194 204 209 212 222 220 215 208 199 199 200 208 214 217 217 218 219 219 209 196 195 201 203 216 225 236 227 223 224 239 286 289
189 224 241 251 272 275 262 186 195 200 196 206 214 214 219 226 221 217 214 205 201 203 206 209 221 225 218 213 226 225 222 222 214 206 215 225 226 217 207 223 228 232 248
184 222 237 244 263 276 258 221 227 223 211 220 227 224 226 235 227 223 220 212 207 209 209 208 212 220 216 208 206 213 221 229 229 220 220 227 225 214 207 214 221 234 262
203 232 247 232 236 248 252 249 256 242 244 238 233 223 231 251 241 233 225 207 211 218 216 212 211 217 226 218 206 213 229 242 244 234 235 240 243 238 219 178 193 234 272
251 261 269 248 229 242 248 253 261 237 245 245 252 240 234 248 252 244 230 212 214 223 224 224 227 226 229 223 208 209 226 237 228 230 236 241 236 231 221 204 198 217 249
304 349 348 287 251 250 258 265 250 242 226 229 253 268 254 254 263 257 242 220 213 217 225 233 238 239 237 231 222 217 231 230 212 209 212 219 219 217 216 216 204 203 223
47 35 0 343 332 344 326 318 300 229 245 269 285 296 286 272 266 263 253 242 232 218 231 234 236 239 238 236 230 231 240 235 195 196 210 220 222 226 225 221 228 231 233
59 38 7 6 2 359 351 340 343 324 272 276 278 286 292 281 267 262 259 254 247 233 233 234 239 240 239 237 233 232 231 211 195 211 223 230 223 217 205 219 242 252 261
55 22 21 24 10 8 1 353 341 311 291 275 268 273 284 289 278 268 266 268 264 255 243 240 245 242 235 235 237 233 216 206 206 217 222 219 198 195 205 212 233 251 276
51 34 22 17 10 3 356 337 313 285 264 272 275 268 274 283 275 264 255 248 238 238 228 218 218 226 223 223 218 216 207 205 215 210 206 209 213 216 226 211 217 235 257
40 21 7 359 359 355 352 352 347 329 317 307 297 285 282 278 286 280 271 264 255 239 226 220 223 224 228 225 221 221 217 217 215 211 211 211 218 223 229 227 233 243 259
26 343 342 343 337 329 326 328 332 339 338 327 316 306 297 296 291 282 274 263 252 237 229 227 227 226 227 221 218 220 224 221 211 208 212 214 218 222 225 231 237 252 262
343 335 335 312 305 303 301 304 305 308 318 323 323 318 316 312 306 295 281 273 256 239 227 231 235 231 227 223 222 224 225 218 213 215 217 216 215 218 226 231 233 243 257
345 335 325 311 304 297 296 300 300 299 300 306 313 319 320 320 318 306 293 265 246 247 240 238 237 233 232 228 225 221 219 220 220 218 221 221 218 218 229 231 237 250 258
347 338 337 325 319 317 313 307 305 303 302 304 303 303 310 316 311 308 296 268 257 259 254 250 244 236 232 229 226 222 219 218 217 221 223 222 221 221 227 232 237 244 250
339 333 333 329 319 312 311 306 301 298 295 296 294 296 300 295 287 283 281 271 263 259 256 252 246 239 235 229 226 223 220 220 218 219 222 223 220 222 224 229 234 240 250
333 325 323 318 315 313 310 303 298 294 292 292 295 301 305 299 287 283 280 277 272 265 255 247 246 241 233 229 226 226 224 222 218 215 217 219 220 222 222 225 229 235 242
323 323 323 319 316 313 315 308 303 300 296 295 296 299 300 293 286 282 279 277 274 270 265 249 250 253 249 243 233 223 225 225 220 213 214 218 219 221 219 224 228 234 240
316 311 307 308 311 309 305 304 301 299 296 294 296 296 294 291 288 285 282 279 275 271 270 262 256 255 255 255 254 246 239 234 224 216 209 214 217 218 218 221 227 230 234
311 308 304 301 303 305 305 303 301 300 299 297 295 296 295 292 289 287 282 275 269 265 266 267 264 260 259 257 256 253 248 242 237 228 216 210 214 213 214 220 225 228 232
304 299 295 293 293 296 298 301 301 300 297 295 295 294 291 288 286 283 281 276 273 271 270 271 268 270 269 266 261 258 253 250 246 238 221 204 207 209 207 215 218 222 225
Height
1466 1466 1467 1468 1469 1470 1471 1472 1473 1475 1476 1477 1479 1481 1482 1484 1485 1486 1487 1488 1490 1491 1492 1493 1494 1495 1496 1497 1498 1499 1500 1501 1501 1502 1503 1504 1504 1504 1504 1503 1503 1502 1501
1464 1465 1465 1466 1467 1468 1468 1470 1471 1472 1473 1474 1476 1477 1479 1480 1482 1483 1484 1485 1486 1487 1488 1489 1490 1491 1493 1494 1494 1495 1496 1497 1498 1498 1499 1499 1499 1500 1499 1499 1498 1497 1497
1462 1462 1463 1464 1464 1465 1466 1467 1468 1469 1470 1471 1473 1474 1475 1477 1478 1479 1480 1482 1483 1484 1484 1485 1486 1488 1489 1490 1490 1491 1492 1493 1493 1494 1494 1495 1495 1495 1495 1494 1494 1493 1492
1459 1460 1460 1460 1461 1462 1463 1463 1464 1465 1467 1468 1469 1471 1472 1473 1474 1476 1477 1478 1478 1479 1481 1482 1483 1484 1485 1486 1487 1487 1488 1489 1489 1489 1490 1490 1490 1490 1490 1489 1488 1488 1487
1457 1457 1457 1458 1458 1459 1459 1460 1461 1462 1464 1465 1466 1467 1468 1469 1471 1472 1473 1474 1474 1475 1477 1478 1479 1480 1481 1482 1482 1483 1484 1484 1484 1485 1485 1485 1485 1485 1485 1484 1484 1483 1482
1455 1455 1455 1455 1455 1456 1456 1457 1458 1459 1460 1461 1462 1463 1464 1465 1467 1468 1469 1469 1470 1471 1472 1474 1475 1476 1476 1477 1478 1478 1479 1479 1479 1480 1480 1480 1480 1480 1480 1480 1479 1477 1476
1453 1454 1454 1453 1453 1453 1453 1453 1454 1455 1456 1457 1458 1459 1460 1461 1463 1464 1465 1465 1466 1467 1468 1469 1470 1471 1472 1472 1473 1473 1474 1474 1475 1475 1475 1475 1475 1475 1475 1474 1474 1473 1471
1451 1452 1452 1452 1451 1451 1451 1451 1451 1452 1453 1454 1454 1455 1456 1457 1459 1459 1460 1461 1462 1462 1463 1464 1465 1466 1467 1467 1468 1468 1468 1469 1470 1470 1470 1470 1471 1470 1470 1470 1469 1467 1466
1449 1449 1449 1450 1449 1449 1448 1448 1449 1449 1449 1450 1450 1451 1452 1453 1454 1455 1456 1456 1456 1457 1458 1459 1460 1461 1462 1462 1463 1463 1463 1464 1465 1465 1465 1465 1465 1465 1465 1464 1463 1462 1460
1447 1447 1447 1447 1447 1447 1446 1446 1446 1446 1446 1447 1447 1448 1448 1449 1450 1451 1451 1451 1451 1452 1453 1454 1455 1455 1456 1456 1457 1457 1457 1458 1459 1459 1459 1460 1460 1460 1460 1459 1458 1457 1456
1445 1445 1445 1445 1444 1444 1443 1443 1443 1443 1443 1443 1444 1444 1444 1445 1445 1446 1446 1446 1446 1447 1448 1449 1450 1451 1451 1452 1452 1452 1453 1453 1453 1453 1453 1454 1454 1454 1454 1454 1453 1453 1452
1442 1442 1443 1442 1442 1441 1441 1440 1440 1440 1440 1440 1440 1440 1440 1441 1441 1441 1442 1442 1442 1443 1443 1444 1445 1446 1446 1447 1447 1447 1448 1448 1447 1448 1448 1448 1448 1448 1448 1448 1448 1447 1447
1440 1440 1440 1440 1439 1439 1439 1438 1438 1437 1437 1437 1437 1436 1437 1437 1437 1437 1438 1438 1438 1438 1439 1440 1440 1441 1441 1441 1442 1442 1442 1442 1442 1442 1442 1442 1443 1443 1443 1442 1442 1442 1441
1438 1438 1438 1437 1436 1436 1436 1436 1435 1435 1435 1434 1434 1433 1433 1433 1433 1434 1433 1434 1434 1434 1434 1434 1435 1435 1436 1436 1436 1437 1437 1437 1437 1437 1437 1437 1438 1437 1437 1437 1437 1436 1436
1437 1436 1435 1435 1434 1434 1434 1433 1433 1433 1433 1432 1431 1431 1430 1430 1430 1430 1430 1429 1429 1429 1429 1429 1430 1430 1430 1431 1431 1431 1432 1432 1432 1433 1433 1433 1433 1433 1433 1432 1432 1431 1431
1435 1434 1434 1433 1433 1432 1431 1431 1430 1430 1430 1429 1428 1428 1427 1427 1426 1426 1426 1425 1425 1425 1425 1424 1424 1425 1425 1425 1426 1426 1427 1427 1428 1428 1428 1428 1428 1428 1428 1428 1428 1427 1426
1433 1433 1432 1431 1431 1430 1429 1428 1427 1426 1426 1426 1425 1424 1424 1423 1422 1421 1421 1421 1421 1421 1420 1420 1420 1420 1421 1421 1421 1422 1422 1422 1423 1423 1423 1423 1424 1424 1423 1423 1423 1422 1422
1432 1431 1430 1429 1428 1427 1427 1426 1425 1423 1422 1421 1421 1421 1420 1419 1418 1417 1417 1417 1416 1416 1416 1416 1416 1416 1416 1416 1417 1417 1417 1417 1418 1418 1418 1419 1419 1419 1419 1418 1418 1418 1417
1430 1429 1428 1427 1426 1425 1424 1423 1422 1421 1420 1419 1418 1417 1417 1415 1414 1414 1413 1413 1412 1412 1412 1411 1411 1412 1412 1412 1412 1412 1412 1413 1413 1413 1413 1414 1414 1414 1414 1414 1414 1413 1413
1427 1426 1425 1424 1423 1422 1421 1420 1419 1418 1417 1416 1415 1414 1413 1411 1410 1410 1409 1409 1408 1408 1407 1407 1407 1407 1407 1407 1407 1407 1407 1407 1408 1408 1408 1408 1409 1409 1409 1409 1409 1409 1408
1425 1424 1422 1421 1420 1419 1418 1417 1416 1415 1414 1412 1411 1410 1410 1408 1407 1406 1406 1405 1404 1404 1403 1403 1403 1403 1402 1402 1402 1402 1402 1402 1402 1403 1403 1403 1404 1404 1404 1404 1404 1404 1404
1422 1421 1420 1419 1418 1417 1415 1414 1413 1412 1410 1409 1408 1407 1406 1405 1404 1403 1402 1401 1400 1400 1399 1398 1398 1398 1398 1397 1397 1397 1397 1397 1397 1398 1398 1399 1399 1399 1399 1399 1400 1399 1399
1420 1419 1418 1416 1415 1414 1413 1411 1410 1409 1407 1406 1404 1403 1402 1401 1400 1399 1398 1397 1396 1395 1395 1394 1393 1393 1393 1393 1392 1392 1392 1392 1393 1393 1393 1394 1394 1394 1395 1395 1395 1395 1395
1417 1416 1415 1413 1412 1411 1409 1408 1406 1405 1404 1402 1401 1400 1398 1397 1396 1395 1394 1393 1392 1391 1391 1390 1389 1389 1388 1388 1388 1388 1388 1388 1388 1388 1389 1389 1389 1390 1390 1390 1391 1391 1391
1414 1413 1412 1410 1409 1407 1406 1404 1403 1401 1400 1399 1397 1396 1394 1393 1391 1390 1389 1388 1388 1387 1386 1386 1385 1384 1384 1384 1383 1383 1383 1383 1383 1384 1384 1384 1385 1385 1386 1386 1386 1386 1386
1411 1409 1408 1407 1405 1404 1402 1400 1399 1397 1396 1394 1393 1391 1390 1388 1387 1386 1385 1384 1383 1383 1382 1382 1381 1381 1380 1380 1379 1379 1379 1379 1379 1380 1380 1380 1381 1381 1381 1382 1382 1382 1382